Chatham, MA

7:31 AM EDT on September 29, 2016 (GMT -0400)
Chatham Municipal

Weather History for KCQX - October, 2010

Change the Weather History Date:

Saturday, October 30, 2010

  Actual Average Record
Temperature  
Mean Temperature 49 °F -  
Max Temperature 55 °F 54 °F 66 °F (2012)
Min Temperature 43 °F 42 °F 34 °F (2008)
Degree Days  
Heating Degree Days 16    
Moisture  
Dew Point 37 °F    
Average Humidity 58    
Maximum Humidity 72    
Minimum Humidity 45    
Precipitation  
Precipitation 0.00 in - - ()
Sea Level Pressure  
Sea Level Pressure 29.91 in    
Wind  
Wind Speed 11 mph (WSW)    
Max Wind Speed 17 mph    
Max Gust Speed 32 mph    
Visibility 10 miles    
Events      
Averages and records for this station are not official NWS values.
T = Trace of Precipitation, MM = Missing Value Source: NWS Daily Summary

Daily Weather History Graph

Daily Weather History Graph

Search for Another Location

Airport or City:

Trip Planner

Search our weather history database for the weather conditions in past years. The results will help you decide how hot, cold, wet, or windy it might be!

Date:

Astronomy

Oct. 30, 2010 Rise Set
Actual Time 7:09 AM EDT 5:37 PM EDT
Civil Twilight 6:40 AM EDT 6:05 PM EDT
Nautical Twilight 6:08 AM EDT 6:38 PM EDT
Astronomical Twilight 5:35 AM EDT 7:10 PM EDT
Moon No Moon Rise 1:44 PM EDT (10/30)
Length of Visible Light 11h 25m
Length of Day
10h 27m
Waning Gibbous, 48% of the Moon is Illuminated
Oct 30
Waning Gibbous
Nov 6
New
Nov 13
First Quarter
Nov 21
Full
Nov 28
Last Quarter

Hourly Weather History & Observations

Time (EDT) Temp. Windchill Dew Point Humidity Pressure Visibility Wind Dir Wind Speed Gust Speed Precip Events Conditions
12:52 AM 48.0 °F - 32.0 °F 54% 29.92 in 10.0 mi NW 12.7 mph 29.9 mph N/A   Overcast
1:52 AM 46.9 °F - 28.9 °F 50% 29.92 in 10.0 mi NW 11.5 mph 29.9 mph N/A   Clear
2:52 AM 46.0 °F 41.9 °F 30.9 °F 56% 29.93 in 10.0 mi NW 8.1 mph 19.6 mph N/A   Partly Cloudy
3:52 AM 45.0 °F 41.8 °F 32.0 °F 60% 29.95 in 10.0 mi Variable 5.8 mph - N/A   Partly Cloudy
4:52 AM 45.0 °F 40.1 °F 32.0 °F 60% 29.97 in 10.0 mi WNW 9.2 mph - N/A   Clear
6:52 AM 43.0 °F 38.2 °F 30.0 °F 60% 30.01 in 10.0 mi WNW 8.1 mph - N/A   Clear
8:52 AM 46.0 °F 42.5 °F 30.0 °F 54% 30.04 in 10.0 mi West 6.9 mph - N/A   Clear
9:52 AM 48.9 °F - 30.9 °F 50% 30.02 in 10.0 mi Variable 5.8 mph - N/A   Clear
10:52 AM 52.0 °F - 34.0 °F 50% 30.00 in 10.0 mi West 9.2 mph 21.9 mph N/A   Clear
11:52 AM 54.0 °F - 33.1 °F 45% 29.97 in 10.0 mi WSW 12.7 mph 25.3 mph N/A   Clear
12:52 PM 55.0 °F - 36.0 °F 49% 29.94 in 10.0 mi WSW 13.8 mph 26.5 mph N/A   Clear
1:52 PM 55.9 °F - 37.9 °F 51% 29.91 in 10.0 mi WSW 12.7 mph 24.2 mph N/A   Clear
2:52 PM 54.0 °F - 39.9 °F 59% 29.89 in 10.0 mi WSW 15.0 mph 32.2 mph N/A   Clear
3:52 PM 54.0 °F - 41.0 °F 62% 29.87 in 10.0 mi WSW 8.1 mph 27.6 mph N/A   Clear
4:52 PM 54.0 °F - 41.0 °F 62% 29.86 in 10.0 mi WSW 15.0 mph 28.8 mph N/A   Scattered Clouds
5:52 PM 54.0 °F - 41.0 °F 62% 29.86 in 10.0 mi WSW 15.0 mph 25.3 mph N/A   Overcast
6:52 PM 54.0 °F - 41.0 °F 62% 29.86 in 10.0 mi SW 11.5 mph 24.2 mph N/A   Clear
7:52 PM 54.0 °F - 42.1 °F 64% 29.86 in 10.0 mi WSW 13.8 mph 25.3 mph N/A   Clear
8:52 PM 55.0 °F - 44.1 °F 67% 29.83 in 10.0 mi SW 10.4 mph 21.9 mph N/A   Clear
9:52 PM 55.0 °F - 46.0 °F 72% 29.81 in 10.0 mi SW 15.0 mph 31.1 mph N/A   Scattered Clouds
10:52 PM 55.0 °F - 45.0 °F 69% 29.79 in 10.0 mi SW 17.3 mph 32.2 mph N/A   Scattered Clouds